• In Hungary
  • List of Countries
  • For 7 days
  • Water Temperature
  • Satellite Maps
  • Weather Map
  • News
  • Weather Widgets
  • user-avatar
    Login

    Hourly Weather Talovka

    Today, 16 December, Saturday

    Time Temperature Precipitation Wind Pressure Humidity
    00:00 -15°C° 0.1 mm 3 mps 732 mmHg 92%
    01:00 -15°C° 0 mm 3 mps 732 mmHg 93%
    02:00 -14°C° 0.2 mm 3 mps 732 mmHg 93%
    03:00 -14°C° 0.2 mm 3 mps 731 mmHg 93%
    04:00 -14°C° 0.2 mm 3 mps 731 mmHg 93%
    05:00 -14°C° 0.2 mm 4 mps 730 mmHg 93%
    06:00 -14°C° 0.2 mm 4 mps 730 mmHg 93%
    07:00 -12°C° 0 mm 4 mps 729 mmHg 92%
    08:00 -12°C° 0.2 mm 4 mps 729 mmHg 91%
    09:00 -12°C° 0.2 mm 5 mps 728 mmHg 90%
    10:00 -11°C° 0.2 mm 5 mps 728 mmHg 89%
    11:00 -11°C° 0.2 mm 5 mps 728 mmHg 89%
    12:00 -11°C° 0.2 mm 5 mps 727 mmHg 88%
    13:00 -10°C° 0 mm 5 mps 727 mmHg 86%
    14:00 -11°C° 0.1 mm 5 mps 726 mmHg 88%
    15:00 -10°C° 0.1 mm 4 mps 726 mmHg 89%
    16:00 -10°C° 0.1 mm 4 mps 726 mmHg 90%
    17:00 -10°C° 0.1 mm 4 mps 726 mmHg 90%
    18:00 -10°C° 0.1 mm 4 mps 726 mmHg 91%
    19:00 -10°C° 0.1 mm 4 mps 726 mmHg 92%
    20:00 -10°C° 0.2 mm 4 mps 726 mmHg 92%
    21:00 -9°C° 0.2 mm 3 mps 725 mmHg 92%
    22:00 -9°C° 0.2 mm 3 mps 725 mmHg 93%
    23:00 -9°C° 0.3 mm 4 mps 725 mmHg 93%

    Tomorrow, 17 December, Sunday

    Time Temperature Precipitation Wind Pressure Humidity
    00:00 -9°C° 0.3 mm 4 mps 724 mmHg 93%
    01:00 -9°C° 0.3 mm 4 mps 724 mmHg 93%
    02:00 -10°C° 0.3 mm 5 mps 724 mmHg 92%
    03:00 -10°C° 0.3 mm 6 mps 723 mmHg 91%
    04:00 -9°C° 0.3 mm 6 mps 723 mmHg 90%
    05:00 -10°C° 0.3 mm 6 mps 723 mmHg 90%
    06:00 -11°C° 0.3 mm 6 mps 723 mmHg 89%
    07:00 -11°C° 0.3 mm 6 mps 724 mmHg 88%
    08:00 -12°C° 0.1 mm 6 mps 724 mmHg 87%
    09:00 -14°C° 0.1 mm 6 mps 725 mmHg 86%
    10:00 -13°C° 0.1 mm 5 mps 725 mmHg 86%
    11:00 -14°C° 0.1 mm 5 mps 726 mmHg 85%
    12:00 -14°C° 0.1 mm 5 mps 726 mmHg 85%
    13:00 -14°C° 0.1 mm 5 mps 726 mmHg 85%
    14:00 -14°C° 0 mm 5 mps 727 mmHg 86%
    15:00 -15°C° 0 mm 5 mps 728 mmHg 86%
    16:00 -15°C° 0 mm 5 mps 728 mmHg 87%
    17:00 -15°C° 0 mm 5 mps 729 mmHg 88%
    18:00 -17°C° 0 mm 5 mps 729 mmHg 88%
    19:00 -17°C° 0 mm 5 mps 730 mmHg 88%
    20:00 -17°C° 0.1 mm 5 mps 730 mmHg 88%
    21:00 -17°C° 0.1 mm 5 mps 730 mmHg 88%
    22:00 -17°C° 0.1 mm 5 mps 730 mmHg 88%
    23:00 -17°C° 0 mm 5 mps 730 mmHg 88%

    Day after tomorrow, 18 December, Monday

    Time Temperature Precipitation Wind Pressure Humidity
    00:00 -16°C° 0 mm 4 mps 730 mmHg 88%
    01:00 -16°C° 0 mm 4 mps 731 mmHg 89%
    02:00 -16°C° 0 mm 4 mps 731 mmHg 89%
    03:00 -17°C° 0 mm 4 mps 731 mmHg 90%
    04:00 -17°C° 0 mm 4 mps 731 mmHg 91%
    05:00 -16°C° 0 mm 3 mps 731 mmHg 91%
    06:00 -16°C° 0 mm 3 mps 731 mmHg 92%
    07:00 -16°C° 0 mm 2 mps 731 mmHg 93%
    08:00 -15°C° 0 mm 2 mps 731 mmHg 92%
    09:00 -14°C° 0 mm 2 mps 731 mmHg 91%
    10:00 -13°C° 0 mm 2 mps 731 mmHg 90%
    11:00 -12°C° 0.1 mm 2 mps 730 mmHg 90%
    12:00 -10°C° 0.1 mm 2 mps 729 mmHg 89%
    13:00 -9°C° 0.1 mm 2 mps 729 mmHg 88%
    14:00 -10°C° 0.2 mm 2 mps 729 mmHg 90%
    15:00 -10°C° 0.2 mm 2 mps 728 mmHg 92%
    16:00 -10°C° 0.2 mm 2 mps 728 mmHg 95%
    17:00 -9°C° 0.3 mm 2 mps 728 mmHg 94%
    18:00 -10°C° 0.3 mm 3 mps 727 mmHg 94%
    19:00 -9°C° 0.3 mm 3 mps 727 mmHg 94%
    20:00 -10°C° 0.3 mm 4 mps 727 mmHg 93%
    21:00 -10°C° 0.3 mm 4 mps 726 mmHg 93%
    22:00 -10°C° 0.3 mm 4 mps 726 mmHg 92%
    23:00 -10°C° 0.2 mm 4 mps 726 mmHg 92%

    19 December, Tuesday

    Time Temperature Precipitation Wind Pressure Humidity
    00:00 -10°C° 0.2 mm 4 mps 726 mmHg 91%
    01:00 -10°C° 0.2 mm 5 mps 726 mmHg 91%
    02:00 -11°C° 0.1 mm 5 mps 726 mmHg 91%
    03:00 -11°C° 0.1 mm 5 mps 726 mmHg 91%
    04:00 -11°C° 0.1 mm 5 mps 726 mmHg 90%
    05:00 -11°C° 0.2 mm 5 mps 726 mmHg 90%
    06:00 -11°C° 0.2 mm 4 mps 727 mmHg 90%
    07:00 -11°C° 0.2 mm 4 mps 727 mmHg 91%
    08:00 -11°C° 0.1 mm 4 mps 728 mmHg 89%
    09:00 -11°C° 0.1 mm 4 mps 728 mmHg 88%
    10:00 -11°C° 0.1 mm 4 mps 729 mmHg 86%
    11:00 -11°C° 0 mm 4 mps 729 mmHg 85%
    12:00 -11°C° 0 mm 4 mps 729 mmHg 84%
    13:00 -11°C° 0 mm 4 mps 729 mmHg 83%
    14:00 -10°C° 0 mm 3 mps 730 mmHg 86%
    15:00 -12°C° 0 mm 3 mps 730 mmHg 88%
    16:00 -12°C° 0 mm 2 mps 730 mmHg 90%
    17:00 -13°C° 0.1 mm 3 mps 730 mmHg 91%
    18:00 -12°C° 0.1 mm 3 mps 730 mmHg 92%
    19:00 -12°C° 0.1 mm 3 mps 729 mmHg 93%
    20:00 -10°C° 0.2 mm 3 mps 729 mmHg 92%
    21:00 -9°C° 0.2 mm 3 mps 729 mmHg 91%
    22:00 -9°C° 0.2 mm 4 mps 728 mmHg 90%
    23:00 -8°C° 0 mm 4 mps 728 mmHg 87%

    20 December, Wednesday

    Time Temperature Precipitation Wind Pressure Humidity
    00:00 -8°C° 0 mm 5 mps 727 mmHg 83%
    01:00 -7°C° 0 mm 5 mps 727 mmHg 80%
    02:00 -7°C° 0 mm 5 mps 727 mmHg 77%
    03:00 -8°C° 0 mm 5 mps 726 mmHg 75%
    04:00 -8°C° 0 mm 5 mps 726 mmHg 72%
    05:00 -10°C° 0 mm 5 mps 726 mmHg 72%
    06:00 -9°C° 0 mm 4 mps 726 mmHg 73%
    07:00 -9°C° 0 mm 3 mps 727 mmHg 73%
    08:00 -9°C° 0 mm 3 mps 727 mmHg 75%
    09:00 -9°C° 0 mm 3 mps 727 mmHg 76%
    10:00 -9°C° 0 mm 3 mps 727 mmHg 77%
    11:00 -7°C° 0 mm 3 mps 726 mmHg 75%
    12:00 -6°C° 0 mm 3 mps 726 mmHg 73%
    13:00 -4°C° 0 mm 2 mps 725 mmHg 72%
    14:00 -6°C° 0 mm 2 mps 725 mmHg 74%
    15:00 -7°C° 0 mm 2 mps 725 mmHg 76%
    16:00 -9°C° 0 mm 2 mps 724 mmHg 78%
    17:00 -10°C° 0 mm 2 mps 724 mmHg 76%
    18:00 -10°C° 0 mm 2 mps 724 mmHg 75%
    19:00 -12°C° 0 mm 2 mps 724 mmHg 73%
    20:00 -12°C° 0 mm 2 mps 724 mmHg 72%
    21:00 -13°C° 0 mm 2 mps 724 mmHg 71%
    22:00 -13°C° 0 mm 2 mps 724 mmHg 71%
    23:00 -13°C° 0 mm 2 mps 724 mmHg 71%

    21 December, Thursday

    Time Temperature Precipitation Wind Pressure Humidity
    00:00 -14°C° 0 mm 2 mps 724 mmHg 72%
    01:00 -14°C° 0 mm 2 mps 724 mmHg 72%
    02:00 -14°C° 0 mm 2 mps 724 mmHg 73%
    03:00 -14°C° 0 mm 2 mps 723 mmHg 74%
    04:00 -15°C° 0 mm 2 mps 723 mmHg 74%
    05:00 -15°C° 0 mm 2 mps 724 mmHg 75%
    06:00 -15°C° 0 mm 2 mps 724 mmHg 75%
    07:00 -15°C° 0 mm 2 mps 724 mmHg 75%
    08:00 -14°C° 0 mm 2 mps 724 mmHg 76%
    09:00 -13°C° 0 mm 2 mps 724 mmHg 76%
    10:00 -12°C° 0 mm 2 mps 724 mmHg 76%
    11:00 -9°C° 0 mm 1 mps 724 mmHg 76%
    12:00 -8°C° 0 mm 1 mps 724 mmHg 77%
    13:00 -7°C° 0 mm 1 mps 723 mmHg 77%
    14:00 -8°C° 0 mm 1 mps 723 mmHg 79%
    15:00 -9°C° 0 mm 1 mps 723 mmHg 81%
    16:00 -13°C° 0 mm 2 mps 723 mmHg 84%
    17:00 -13°C° 0 mm 2 mps 723 mmHg 82%
    18:00 -14°C° 0 mm 2 mps 723 mmHg 81%
    19:00 -14°C° 0 mm 2 mps 724 mmHg 80%
    20:00 -14°C° 0 mm 2 mps 723 mmHg 79%
    21:00 -15°C° 0 mm 2 mps 723 mmHg 78%
    22:00 -15°C° 0 mm 2 mps 723 mmHg 77%
    23:00 -15°C° 0 mm 2 mps 723 mmHg 77%
    Show more